Regional Weather Roundup
Issued by NWS Green Bay, WI

Home | Current Version | Previous Version | Text Only | Print | Product List | Glossary On
Versions: 1 2 3 4 5 6 7 8 9 10 11 12 13 14 15 16 17 18 19 20 21 22 23 24 25 26 27 28 29 30 31 32 33 34 35 36 37 38 39 40 41 42 43 44 45 46 47 48 49 50
000
ASUS43 KGRB 261611
RWRGRB

NORTH-CENTRAL AND NORTHEAST WISCONSIN REGIONAL WEATHER ROUNDUP
NATIONAL WEATHER SERVICE GREEN BAY WI
1100 AM CDT THU APR 26 2018

WIZ005-009-010>012-018-019-261700-
NORTH CENTRAL WISCONSIN

CITY           SKY/WX    TMP DP  RH WIND       PRES   REMARKS
IRONWOOD       FAIR      56  31  38 W18       29.79S
MANITOWISH WTR FAIR      53  31  44 SW9       29.80S
ARBOR VITAE    FAIR      57  34  42 SW7       29.81S
EAGLE RIVER    FAIR      50  29  43 W13       29.82S
LAND O LAKES   FAIR      53  28  38 SW7       29.82S
RHINELANDER    FAIR      55  32  41 SW9       29.83F
PHILLIPS       FAIR      53  33  45 SW10G16   29.80F
ANTIGO         FAIR      53  32  45 W14       29.86S
TOMAHAWK       FAIR      54  31  41 SW3       29.84F
MERRILL        FAIR      56  33  41 W14       29.86S
$$

WIZ013-073-261700-
NORTHEAST WISCONSIN

CITY           SKY/WX    TMP DP  RH WIND       PRES   REMARKS
IRON MOUNTAIN  FAIR      58  26  29 SW12      29.80F
MARINETTE      FAIR      56  32  40 W9        29.87F
OCONTO         FAIR      57  31  36 SW10      29.87S
$$

WIZ017-030-035>037-045-261700-
CENTRAL WISCONSIN

CITY           SKY/WX    TMP DP  RH WIND       PRES   REMARKS
MEDFORD        FAIR      53  35  50 SW12      29.85F
WAUSAU         FAIR      56  31  38 W9        29.85F
MOSINEE        MOSUNNY   55  34  44 W13       29.88F
MARSHFIELD     FAIR      56  34  43 SW12      29.86F
WISC RAPIDS    FAIR      60  31  33 SW12G18   29.89F
STEVENS POINT  FAIR      54  32  42 W12       29.88F
WAUPACA        FAIR      60  28  29 W10       29.89F
SHAWANO        FAIR      57  32  38 SW10      29.87F
CLINTONVILLE   FAIR      56  32  40 SW6       29.88F
WAUTOMA        FAIR      59  31  34 SW9       29.89F
$$

WIZ038-039-048-051-261700-
FOX VALLEY

CITY           SKY/WX    TMP DP  RH WIND       PRES   REMARKS
NWS GREEN BAY  FAIR      54  37  52 SW10      29.89F
APPLETON       MOSUNNY   54  30  40 SW9       29.89S
OSHKOSH        FAIR      56  36  47 SW9       29.90S
FOND DU LAC    FAIR      54  35  48 SW9       29.91S
$$

WIZ022-050-052-261700-
EAST CENTRAL WISCONSIN

CITY           SKY/WX    TMP DP  RH WIND       PRES   REMARKS
EPHRAIM        FAIR      51  32  49 W7        29.86F
WASHINGTON ISL FAIR      49  31  51 SW10      29.87S
STURGEON BAY   FAIR      55  31  39 SW14      29.88F
MANITOWOC      FAIR      57  32  38 SW14      29.90F
SHEBOYGAN      FAIR      59  35  40 SW12      29.90F
$$

LMZ563-521-522-541>543-261700-
LAKESHORE

STATION/POSITION TIME  TEMP    WIND        PRES    VSBY  WAVE
                       AIR SEA DIR/SP/G                  HT/PER
                 (UTC) (F)     (DEG/KT/KT) (MB)    (MI)  (FT/S)
SHEBOYGAN LKSHOR 1600   40     160/ 14/ 15 1013.0F
KEWAUNEE LKSHORE 1542   41     170/  8/ 10 1011.7F
NORTHPORT PIER   1540   48                 1011.5S
SISTER BAY LKSHO 1557   50     300/  6/  7   N/A
MENOMINEE LKSHOR 1536   45     160/  9/ 10 1011.1F
$$




USA.gov is the U.S. government's official web portal to all federal, state and local government web resources and services.